Theta_e
310 313 313 313 312 309 312 311 311 309 310 313 314 313 313 314 312 313 314 314 314 314 312 308 308 308 308 311 321 327 331 334 333 332 333 333 332 332 332 332 331 331 329 328
312 312 312 307 307 310 310 311 311 310 310 312 312 313 313 313 313 314 314 314 314 312 311 309 307 306 306 307 307 314 322 328 333 333 332 333 332 332 332 332 332 331 330 329
312 310 308 309 308 310 310 311 310 311 308 308 310 312 312 310 307 308 309 309 308 308 309 308 310 309 306 306 306 307 313 320 328 332 332 331 332 331 331 331 331 331 331 330
310 306 308 309 309 310 311 309 309 310 312 311 308 311 313 311 310 309 309 309 310 310 309 310 310 311 310 309 306 304 309 316 322 328 330 330 330 331 331 331 330 330 329 330
310 308 308 310 310 308 310 308 310 310 312 313 311 311 312 307 311 311 310 312 312 310 309 309 308 307 308 309 311 311 305 309 318 323 327 329 329 329 330 329 329 329 329 328
309 307 308 309 306 308 307 309 309 309 311 313 312 312 312 311 310 309 308 313 311 310 309 308 307 307 308 309 310 316 313 308 309 318 324 326 328 328 330 331 331 329 328 328
310 310 308 308 309 307 308 312 313 313 314 312 306 309 312 309 306 308 309 313 310 309 310 309 309 309 308 308 309 312 317 318 317 316 320 324 325 326 328 329 331 331 329 328
310 310 310 309 310 311 310 311 314 318 313 312 306 311 311 309 310 308 309 311 309 309 308 308 307 307 307 307 308 308 311 315 318 320 320 321 323 324 325 327 326 328 328 329
310 309 308 307 307 310 310 311 308 309 303 314 311 311 310 308 307 311 311 310 309 308 308 307 306 306 307 307 306 307 308 308 313 316 319 320 322 323 324 324 324 324 324 324
309 310 309 308 308 307 309 308 311 310 318 317 309 309 311 311 311 312 312 311 308 307 306 306 304 304 304 304 305 305 306 306 307 308 311 313 315 317 317 317 317 317 317 317
307 311 311 309 310 311 308 309 308 310 313 322 314 310 309 311 313 313 313 311 309 308 307 305 304 303 303 302 302 303 303 304 305 306 306 307 307 308 308 308 308 308 308 308
308 311 313 311 307 307 307 310 310 311 311 309 310 311 308 306 312 313 312 308 308 307 306 304 303 302 301 301 300 300 300 301 302 303 303 303 303 304 304 304 304 304 305 305
308 314 316 311 309 310 310 308 309 309 310 316 318 312 309 308 310 311 311 308 307 306 304 303 302 301 301 300 299 299 298 299 299 300 300 300 300 300 300 300 300 300 301 301
308 311 312 312 310 312 312 309 308 309 317 312 312 312 312 311 311 311 310 308 307 305 303 303 302 301 300 299 299 298 297 299 299 299 299 299 299 299 299 299 299 300 299 299
310 314 310 310 310 311 313 312 310 310 311 312 312 311 311 313 313 312 310 308 306 304 303 303 302 301 300 298 298 297 296 297 296 296 296 296 296 296 296 297 297 297 297 297
312 315 310 310 311 311 312 311 311 311 311 311 310 311 308 311 312 311 309 307 306 305 303 302 300 299 298 297 297 296 295 296 296 296 296 296 297 297 296 296 296 296 296 296
313 312 315 317 311 313 314 312 311 310 310 311 311 311 309 309 311 311 310 307 306 304 302 301 300 299 297 295 295 295 295 295 295 295 295 295 295 295 295 295 295 296 296 296
311 311 314 316 313 318 313 307 310 310 310 309 309 309 310 310 310 311 309 307 305 303 301 300 299 297 295 293 293 293 294 294 294 294 294 294 294 294 294 294 294 294 294 294
309 312 317 318 317 316 314 307 310 310 312 309 309 309 307 305 305 303 303 304 302 300 299 298 297 295 292 292 292 292 292 292 292 291 291 291 292 292 292 292 292 292 292 292
308 309 313 313 319 319 309 302 305 309 315 309 309 309 306 305 312 309 298 297 296 295 295 295 293 291 291 290 290 291 290 290 290 290 290 290 290 290 290 290 290 290 289 290
310 311 311 312 314 313 307 301 304 314 315 300 302 307 305 308 306 300 296 294 294 294 292 291 290 289 288 288 289 289 288 286 286 287 288 288 287 287 287 287 288 288 288 288
309 311 312 311 312 311 300 303 311 306 297 298 299 301 300 297 297 296 294 293 292 290 288 288 288 286 286 285 286 285 284 283 283 284 285 285 285 285 285 285 286 286 286 285
310 310 312 311 311 302 298 301 299 298 299 296 297 297 296 295 294 294 293 292 290 287 284 284 285 284 283 282 283 282 281 282 283 283 284 284 284 284 284 283 283 283 282 282
299 297 305 308 303 300 298 296 296 294 295 294 294 294 294 294 293 293 291 289 287 285 282 282 282 281 280 280 279 279 278 279 280 280 281 281 281 282 282 280 280 282 283 283
300 298 301 302 297 295 295 294 295 293 292 292 291 292 292 293 292 291 289 286 284 281 279 279 279 278 277 276 276 276 276 277 277 277 277 276 275 275 276 277 278 279 281 282
295 298 303 307 299 301 299 295 293 293 292 291 291 290 289 291 290 287 285 282 280 278 277 276 275 275 275 276 276 275 275 273 272 271 271 272 272 273 274 275 277 279 279 281
Wind_Speed
2 5 13 16 8 2 8 5 6 3 1 4 8 12 14 12 8 12 12 12 13 11 7 7 11 13 15 19 24 27 27 27 25 27 27 26 28 30 29 30 29 27 27 28
5 12 5 8 8 7 8 6 4 3 2 3 2 13 12 13 12 11 12 12 12 9 9 5 4 6 10 16 19 22 26 26 27 24 27 25 24 26 29 30 31 29 28 28
10 2 12 7 7 7 3 5 4 1 2 2 5 9 6 4 6 7 8 9 7 8 8 5 2 2 4 7 11 15 22 24 26 25 21 23 19 21 24 28 30 32 29 28
3 2 9 10 7 4 6 6 6 7 3 3 2 5 5 3 9 5 4 3 2 3 2 2 4 5 4 2 4 9 14 20 22 22 22 23 23 22 21 21 26 28 29 28
6 10 11 8 6 6 3 6 7 3 3 2 2 5 4 2 9 5 7 3 2 2 2 4 6 5 6 6 3 1 8 15 17 20 23 23 23 21 19 19 22 25 26 24
4 3 2 3 5 1 13 9 6 4 1 5 6 6 7 5 3 3 4 3 2 3 4 4 4 5 7 7 8 6 4 6 13 17 20 21 19 19 17 18 17 19 21 20
2 2 1 3 10 5 2 10 3 4 5 5 2 4 10 5 4 3 2 2 3 4 3 3 5 6 8 9 9 9 7 6 5 10 13 17 18 17 16 17 17 13 20 21
9 6 9 4 3 9 7 7 5 7 5 2 2 8 4 2 1 3 2 3 4 4 3 4 5 7 8 9 9 9 9 9 7 8 7 9 12 12 13 13 15 16 16 17
8 6 1 1 2 6 7 7 3 7 1 2 5 5 10 7 7 4 6 6 4 4 4 4 6 7 8 9 10 9 10 11 11 10 9 8 7 6 6 6 6 7 7 9
7 4 1 1 1 2 4 11 4 2 5 5 5 5 8 6 11 10 9 9 6 4 5 5 6 8 8 10 10 11 11 12 12 13 14 13 11 9 7 6 4 3 4 6
6 3 2 2 8 12 5 6 1 3 3 4 3 5 5 9 11 14 11 9 8 7 6 6 8 9 10 11 12 12 11 11 12 14 15 15 14 12 10 8 6 3 1 3
4 4 5 8 1 3 2 8 10 6 6 3 1 6 0 2 9 12 11 9 7 7 7 7 9 9 11 12 12 12 12 13 13 14 15 15 14 12 10 9 7 4 3 4
9 4 4 2 2 0 7 6 8 2 2 8 6 8 2 0 9 8 12 10 9 9 8 7 8 9 10 11 11 11 12 14 13 13 15 15 14 13 12 10 9 7 7 7
2 3 12 15 6 7 7 8 7 9 4 16 11 19 4 7 12 11 11 11 11 9 9 8 7 8 9 9 10 10 11 12 11 12 14 16 13 12 11 11 10 9 9 9
3 6 5 8 1 4 5 13 17 16 26 13 25 19 15 16 17 18 15 13 13 12 11 10 9 9 8 8 9 9 9 10 10 10 11 13 12 11 11 11 11 11 11 12
1 2 2 1 1 3 2 8 18 24 24 21 24 20 2 14 14 13 16 16 15 14 13 10 9 10 8 8 8 8 8 10 10 10 12 12 12 12 12 13 13 14 15 15
7 6 4 4 5 4 4 22 14 14 17 17 20 30 8 8 15 16 17 18 17 15 13 11 9 10 8 7 7 7 8 8 9 10 12 12 12 12 13 14 15 16 16 17
4 4 2 3 4 8 9 2 15 21 18 19 18 17 9 14 17 12 14 17 15 14 13 10 11 10 8 7 7 7 7 7 7 9 10 11 12 13 14 15 16 16 17 19
2 3 3 5 10 9 7 5 8 12 20 21 21 20 6 6 7 2 7 12 13 13 14 13 11 10 8 7 7 7 7 7 7 9 10 12 14 15 17 18 19 20 20 21
7 2 2 3 6 10 2 2 2 5 14 8 18 21 11 11 8 6 12 12 14 16 15 14 12 12 9 7 7 6 7 7 9 11 11 12 13 15 17 18 20 21 22 23
5 4 10 7 4 6 4 4 4 8 3 1 2 5 12 10 3 15 14 14 17 16 15 14 12 10 9 6 5 7 6 9 11 13 14 14 15 17 18 20 21 22 23 25
11 9 5 4 6 10 6 4 7 1 0 2 2 3 7 10 14 16 15 14 17 17 13 11 12 10 7 7 7 9 9 12 14 16 18 19 21 22 22 23 23 22 22 22
6 4 5 9 7 3 4 1 2 1 2 3 3 7 16 16 16 14 13 13 14 14 11 10 9 7 6 9 11 11 12 15 18 20 21 22 24 24 23 21 20 19 17 16
4 3 2 2 4 3 3 3 4 1 2 5 10 11 12 16 13 12 10 10 12 10 9 7 6 5 4 7 9 10 12 15 18 19 21 22 22 23 22 19 17 16 16 17
2 7 5 4 1 1 6 7 5 5 8 10 7 7 13 14 11 11 9 9 9 7 5 4 4 3 3 6 8 11 13 16 18 19 19 18 16 18 19 18 17 18 20 19
5 6 6 5 6 2 2 9 11 11 8 9 10 6 4 8 10 12 9 10 9 7 4 2 1 3 6 9 11 12 13 14 15 16 13 14 16 16 17 19 25 20 21 20
Wind_Direction
73 179 192 181 178 133 144 151 156 121 112 189 246 263 267 270 247 253 250 246 248 245 263 243 259 245 235 227 227 225 222 223 213 211 211 214 216 223 227 236 239 237 234 233
155 210 175 102 127 123 126 156 159 117 99 228 269 271 262 259 256 243 240 247 259 271 271 252 253 252 236 235 234 231 226 222 217 211 216 216 222 225 228 233 239 240 238 236
181 154 145 137 142 143 125 171 172 102 124 71 304 274 243 234 258 264 245 251 262 278 291 297 298 282 253 240 245 236 228 222 218 216 216 217 220 225 225 225 231 240 240 240
130 112 149 140 167 153 182 174 133 127 177 233 323 281 271 218 263 233 238 207 283 350 46 49 45 45 29 338 256 236 219 216 216 214 214 210 216 220 226 225 225 237 243 240
159 161 153 176 185 171 142 131 129 98 126 279 197 262 256 4 264 217 153 122 69 53 34 59 49 41 33 29 38 196 212 213 211 209 213 215 220 227 231 229 234 236 243 246
73 349 135 118 72 66 142 107 78 83 134 245 215 238 249 208 238 147 134 106 87 98 95 76 57 48 44 41 54 66 102 193 206 207 212 217 222 224 223 223 217 227 238 243
121 143 63 146 107 111 213 161 121 200 203 245 73 225 265 241 206 161 78 75 92 99 98 71 55 48 41 37 48 70 84 95 146 189 205 214 221 226 229 231 228 222 237 241
170 204 178 174 187 167 185 206 169 191 199 176 107 232 235 152 3 264 183 116 115 105 85 59 50 54 51 45 50 59 68 74 92 134 162 191 210 220 227 231 239 235 245 248
171 194 16 41 148 167 170 209 82 100 37 252 209 248 268 222 236 177 153 146 122 101 88 79 75 73 72 65 65 72 82 85 89 99 118 139 160 179 198 210 220 230 240 247
181 115 10 125 168 26 209 138 139 210 193 227 226 268 241 206 199 178 169 154 136 110 99 85 76 79 78 74 74 77 81 86 95 103 109 111 116 123 130 136 146 190 224 233
141 121 125 163 217 177 150 178 161 175 194 207 260 242 219 224 180 176 172 160 147 134 114 97 90 87 87 83 77 77 78 84 89 97 101 103 102 103 107 104 98 84 334 299
167 111 155 194 35 349 327 202 183 194 201 251 344 253 30 254 183 172 164 156 142 129 125 119 115 109 97 88 83 79 79 85 86 90 92 89 91 87 80 71 63 44 352 331
175 180 113 129 222 225 219 190 221 205 63 202 194 251 27 105 182 172 163 163 160 151 147 135 126 116 103 94 86 81 81 84 84 88 89 84 77 75 71 63 51 32 20 7
118 127 207 217 214 138 203 192 200 197 199 228 231 250 165 188 186 181 179 168 166 166 160 152 138 120 109 99 95 88 81 82 80 78 78 75 68 62 60 55 45 31 18 8
201 198 194 244 340 169 194 191 190 202 225 215 244 242 236 199 196 195 178 173 176 174 172 168 153 138 124 108 93 84 75 73 71 71 70 64 59 51 44 38 31 20 9 5
178 135 116 224 108 190 228 210 204 213 227 230 248 257 270 192 204 181 189 181 184 179 175 165 155 142 122 106 98 88 78 72 71 66 59 51 44 34 26 20 14 6 359 355
166 145 137 225 151 120 280 226 205 219 231 224 235 243 181 189 199 200 193 192 184 176 168 162 154 136 118 102 91 77 70 65 63 55 45 36 26 18 14 6 359 353 347 343
143 126 129 146 152 218 242 71 218 214 228 220 243 251 205 208 206 210 195 178 172 166 158 148 140 131 116 109 99 96 88 79 69 50 30 22 10 4 357 351 343 338 332 330
113 138 171 198 210 292 254 188 160 183 241 228 230 242 181 128 122 184 167 167 158 150 143 138 133 128 118 109 106 106 90 72 51 29 11 2 353 346 342 336 332 327 322 319
175 166 205 166 201 213 6 160 148 110 268 203 215 232 182 155 202 192 159 131 124 127 132 133 130 124 115 99 100 94 68 47 21 0 350 343 339 334 329 324 320 317 315 311
169 175 208 213 234 277 214 137 170 170 242 316 233 206 165 194 262 126 124 114 116 119 116 121 116 102 101 80 74 62 45 23 353 342 335 332 328 323 320 316 314 312 310 308
182 173 183 186 211 252 149 113 199 105 69 243 189 161 125 116 123 122 122 122 121 115 109 113 113 99 82 42 30 24 11 345 335 331 327 323 322 321 320 317 313 311 309 306
204 215 177 192 206 137 200 324 2 179 212 207 165 143 132 129 127 122 124 124 124 120 112 106 108 99 52 20 10 1 338 329 325 324 321 320 318 316 317 314 306 304 302 297
233 197 227 178 185 189 246 248 269 222 158 130 126 127 130 127 127 123 123 127 125 123 114 110 107 86 37 1 351 340 326 323 323 322 320 320 319 316 314 308 301 293 288 288
149 155 172 262 220 259 241 219 187 128 118 113 94 110 130 125 125 129 127 125 123 117 107 92 77 56 0 339 339 333 328 325 324 323 321 317 312 308 305 300 295 292 290 282
188 172 195 232 177 201 197 172 159 147 143 134 129 112 80 126 134 134 131 134 136 135 137 125 46 350 336 334 332 324 319 320 322 319 315 309 309 308 308 309 310 303 298 294